TimeMDT,TemperatureF,Dew PointF,Humidity,Sea Level PressureIn,VisibilityMPH,Wind Direction,Wind SpeedMPH,Gust SpeedMPH,PrecipitationIn,Events,Conditions,WindDirDegrees,DateUTC
12:53 AM,64.9,59.0,81,30.00,10.0,East,5.8,-,N/A,,Clear,100,2013-09-05 06:53:00
1:53 AM,63.0,57.9,84,29.99,10.0,Calm,Calm,-,N/A,,Clear,0,2013-09-05 07:53:00
2:53 AM,57.9,55.0,90,29.99,10.0,Calm,Calm,-,N/A,,Clear,0,2013-09-05 08:53:00
3:53 AM,59.0,55.9,90,29.99,10.0,NW,3.5,-,N/A,,Clear,310,2013-09-05 09:53:00
4:53 AM,57.0,55.0,93,29.99,10.0,ESE,4.6,-,N/A,,Clear,110,2013-09-05 10:53:00
5:53 AM,59.0,55.9,90,29.98,10.0,ENE,4.6,-,N/A,,Clear,70,2013-09-05 11:53:00
6:53 AM,59.0,55.9,90,30.00,10.0,ENE,3.5,-,N/A,,Clear,70,2013-09-05 12:53:00
7:53 AM,61.0,57.0,87,30.01,10.0,East,5.8,-,N/A,,Clear,90,2013-09-05 13:53:00
8:53 AM,66.0,57.9,75,30.01,10.0,ENE,6.9,-,N/A,,Clear,70,2013-09-05 14:53:00
9:53 AM,73.0,59.0,61,29.99,10.0,ENE,6.9,-,N/A,,Clear,70,2013-09-05 15:53:00
10:53 AM,79.0,57.9,48,29.98,10.0,ENE,6.9,-,N/A,,Clear,70,2013-09-05 16:53:00
11:53 AM,84.9,57.9,40,29.95,10.0,ENE,10.4,-,N/A,,Clear,60,2013-09-05 17:53:00
12:53 PM,89.1,57.9,35,29.93,10.0,East,9.2,-,N/A,,Clear,90,2013-09-05 18:53:00
1:53 PM,91.9,57.9,32,29.90,10.0,ENE,11.5,-,N/A,,Clear,60,2013-09-05 19:53:00
2:53 PM,93.0,57.0,30,29.88,10.0,ENE,13.8,19.6,N/A,,Clear,60,2013-09-05 20:53:00
3:53 PM,95.0,57.0,28,29.86,10.0,NE,11.5,-,N/A,,Clear,50,2013-09-05 21:53:00
4:53 PM,95.0,57.0,28,29.84,10.0,ENE,11.5,-,N/A,,Clear,60,2013-09-05 22:53:00
5:53 PM,91.0,57.9,33,29.84,10.0,ENE,12.7,-,N/A,,Clear,70,2013-09-05 23:53:00
7:02 PM,77.0,60.8,57,29.92,10.0,WSW,31.1,42.6,N/A,Thunderstorm,Mostly Cloudy,240,2013-09-06 01:02:00
7:11 PM,73.4,62.6,69,29.92,10.0,WSW,20.7,33.4,0.00,Rain-Thunderstorm,Light Rain,250,2013-09-06 01:11:00
7:46 PM,69.8,66.2,88,29.93,10.0,WNW,8.1,-,0.00,Rain,Light Rain,300,2013-09-06 01:46:00
7:53 PM,70.0,66.0,87,29.91,10.0,NNW,6.9,-,0.00,Rain,Light Rain,330,2013-09-06 01:53:00
8:53 PM,69.1,66.0,90,29.92,10.0,Calm,Calm,-,0.00,,Partly Cloudy,0,2013-09-06 02:53:00
9:53 PM,69.1,66.0,90,29.92,10.0,Calm,Calm,-,N/A,,Mostly Cloudy,0,2013-09-06 03:53:00
10:53 PM,66.0,64.0,93,29.93,10.0,SSW,4.6,-,N/A,,Clear,200,2013-09-06 04:53:00
11:53 PM,66.0,63.0,90,29.91,10.0,Calm,Calm,-,N/A,,Clear,0,2013-09-06 05:53:00